[[{"header":{"parameterUnit":"m.s-1","parameterCategory":2,"la1":30.2991,"la2":30.254,"lo1":-89.0895,"lo2":-89.0444,"dy":0.0017,"dx":0.0017,"nx":28,"ny":28,"refTime":"2024-06-08T09:00:00:Z","depth":"0","parameterNumber":2,"parameterNumberName":"U-component_of_CURRENTS"},"data":[0,0,0,0,0,0,0,0,0,0,0,0,0,0,0,0,0,0,0,0,0,0,0,0,0,0,0,0,0,0,0,0,0,0,0,0,0,0,0,0,0,0,0,0,0,0,0,0,0,0,0,0,0,0,0,0,0,0,0.3577,0.3577,0,0.3607,0.3607,0.3607,0.3596,0.3595,0.3595,0.3594,0.3677,0.368,0.3683,0,0,0,0,0,0,0,0,0,0,0,0,0,0.3527,0.3528,0.3576,0.3577,0.3577,0.3607,0.3607,0.3607,0.3596,0.3595,0.3594,0.3594,0.3677,0.368,0.3683,0,0,0,0,0,0,0,0,0,0,0,0,0,0.3552,0.3528,0.3576,0.3575,0.3576,0.3607,0.3607,0.3608,0.3596,0.3595,0.3594,0.3593,0.3675,0.368,0.3684,0.373,0,0,0.3697,0.3699,0,0,0,0,0,0,0,0,0.355,0.3554,0.3575,0.3576,0.3576,0.3597,0.362,0.3651,0.3596,0.3588,0.3594,0.3593,0.3657,0.3662,0.3669,0.3734,0.3737,0.3697,0.37,0.3702,0.3703,0,0,0,0,0,0,0,0.3549,0.3552,0.3588,0.3576,0.3576,0.358,0.3582,0.3626,0.3628,0.3589,0.3588,0.3592,0.3657,0.3665,0.3671,0.3739,0.3697,0.3701,0.3703,0.3705,0.4001,0.4007,0,0,0,0,0,0,0.3546,0.3551,0.3587,0.3589,0.3561,0.3582,0.3584,0.3591,0.3626,0.3631,0.3593,0.3592,0.3658,0.3666,0.3674,0.3874,0.3702,0.3705,0.3708,0.3996,0.4003,0.4008,0,0,0,0,0,0,0.3545,0.3549,0.3586,0.3571,0.3576,0.3583,0.3591,0.3592,0.361,0.3629,0.3634,0.3611,0.3657,0.3668,0.3761,0.3871,0.3707,0.3711,0.399,0.3998,0.4006,0.4182,0,0,0,0,0,0,0.3544,0.3549,0.3555,0.3571,0.3576,0.3641,0.3592,0.3593,0.3614,0.3613,0.3647,0.3653,0.3657,0.3755,0.3766,0.3874,0.3715,0.3983,0.3994,0.4003,0.417,0.4195,0.4217,0,0,0,0,0,0.3542,0.3566,0.3555,0.3559,0.3584,0.3644,0.3649,0.3649,0.3616,0.3655,0.3684,0.3652,0.3826,0.3763,0.3774,0.3886,0.3978,0.3991,0.4002,0.4159,0.419,0.4217,0,0,0,0,0,0,0.3546,0.3567,0.3556,0.3582,0.3623,0.3642,0.3676,0.3661,0.3709,0.3714,0.3708,0.372,0.3854,0.3843,0.3772,0.4005,0.3903,0.3918,0.4019,0.4048,0.4071,0.4083,0.3718,0,0,0,0,0,0.3549,0.358,0.3599,0.3631,0.3653,0.3662,0.3682,0.369,0.3729,0.3746,0.3772,0.3822,0.3912,0.3952,0.4018,0.4128,0.4125,0.4214,0.4237,0.4257,0.4278,0.4366,0.4399,0.4048,0.4048,0.4047,0,0,0.3556,0.3578,0.359,0.3636,0.3664,0.3744,0.3674,0.3734,0.3811,0.3753,0.3871,0.3907,0.3961,0.4106,0.4164,0.4107,0.4362,0.4273,0.4289,0.4299,0.4382,0.4416,0.4446,0.4056,0.4054,0.4053,0,0,0.3629,0.3616,0.3681,0.3725,0.3785,0.3809,0.3831,0.3873,0.3904,0.4016,0.4015,0.4114,0.4215,0.4293,0.4342,0.4534,0.4487,0.4555,0.4683,0.4769,0.4798,0.4823,0.4874,0.4903,0.4562,0.4563,0.4563,0,0.364,0.3708,0.3713,0.3803,0.3842,0.3848,0.3935,0.3995,0.4066,0.4104,0.4087,0.428,0.4323,0.4507,0.4589,0.4592,0.4606,0.4564,0.4798,0.4823,0.4846,0.4891,0.492,0.4573,0.4572,0.4571,0.457,0,0.3776,0.3824,0.3875,0.3987,0.4044,0.4117,0.419,0.4259,0.4286,0.433,0.4493,0.4564,0.4663,0.4721,0.4723,0.4923,0.4871,0.4817,0.4715,0.4891,0.4929,0.4956,0.4587,0.4584,0.4581,0.4578,0,0,0.3809,0.3937,0.3955,0.4006,0.4128,0.4185,0.4338,0.4449,0.4527,0.4636,0.4753,0.4939,0.4931,0.4988,0.5008,0.5104,0.5294,0.504,0.504,0.5073,0.5466,0.532,0.5334,0.5269,0.5275,0.5279,0.543,0,0.3907,0.406,0.4114,0.4264,0.4334,0.4388,0.4515,0.4624,0.4708,0.4834,0.4937,0.5068,0.5048,0.5104,0.5209,0.527,0.5371,0.5256,0.5306,0.5308,0.5142,0.5364,0.5187,0.5297,0.5456,0.546,0.5463,0,0.4016,0.4097,0.4238,0.4348,0.4386,0.4489,0.4636,0.4753,0.4931,0.4993,0.5136,0.5197,0.5393,0.533,0.5538,0.5458,0.5492,0.5529,0.5533,0.5352,0.5213,0.5148,0.5338,0.5228,0.5503,0.55,0.5497,0,0.4006,0.4169,0.4264,0.4312,0.4469,0.4539,0.4628,0.4793,0.488,0.5097,0.5182,0.5379,0.5482,0.5592,0.5668,0.5617,0.586,0.578,0.5688,0.5675,0.5513,0.5476,0.5585,0.5941,0.594,0.594,0.594,0,0.4058,0.4133,0.4261,0.4314,0.4428,0.4537,0.467,0.4784,0.4955,0.5081,0.5248,0.5384,0.5554,0.5693,0.5744,0.5805,0.5917,0.5766,0.5733,0.5569,0.5537,0.5415,0.5341,0.5945,0.5944,0.5943,0.5942,0,0.4033,0.412,0.4222,0.4371,0.4422,0.4501,0.466,0.4755,0.492,0.51,0.5177,0.5419,0.5609,0.5744,0.5928,0.5874,0.5799,0.5941,0.572,0.5658,0.5405,0.5345,0.5189,0.5039,0.5872,0.587,0.5868,0,0.4036,0.4088,0.4228,0.4286,0.4356,0.4478,0.4562,0.4724,0.4827,0.5109,0.5198,0.5443,0.5596,0.5801,0.5818,0.5895,0.5741,0.5705,0.5581,0.5422,0.5335,0.5107,0.4977,0.5453,0.5448,0.5444,0.544,0,0.4041,0.408,0.4162,0.4259,0.435,0.4437,0.457,0.463,0.4838,0.4972,0.5166,0.5312,0.5541,0.5551,0.5636,0.565,0.5427,0.5613,0.554,0.5111,0.4784,0.461,0.5302,0.5403,0.5406,0.5409,0.5411,0.5413,0.4035,0.4071,0.4164,0.4239,0.4326,0.4385,0.4405,0.4542,0.4652,0.481,0.5021,0.5144,0.5291,0.5398,0.5361,0.5187,0.516,0.5052,0.5028,0.4838,0.4585,0.5169,0.5155,0.5157,0.5159,0.516,0.5162,0,0.4036,0.4075,0.4143,0.4219,0.4243,0.4315,0.44,0.4385,0.4441,0.4622,0.4741,0.4847,0.4861,0.4923,0.4853,0.4668,0.4444,0.4547,0.4251,0.4178,0.4816,0.4691,0.4462,0.4462,0.4462,0.4462,0.4462,0.4462,0.405,0.4098,0.4107,0.412,0.4151,0.4126,0.4126,0.4118,0.419,0.4202,0.4234,0.4354,0.4551,0.4606,0.4436,0.4318,0.4008,0.3799,0.3785,0.4321,0.4367,0.4411,0.4281,0.397,0.3969,0.2997,0.299,0.2984]},{"header":{"parameterUnit":"m.s-1","parameterCategory":2,"la1":30.2991,"la2":30.254,"lo1":-89.0895,"lo2":-89.0444,"dy":0.0017,"dx":0.0017,"nx":28,"ny":28,"refTime":"2024-06-08T09:00:00:Z","depth":"0","parameterNumber":3,"parameterNumberName":"V-component_of_CURRENTS"},"data":[0,0,0,0,0,0,0,0,0,0,0,0,0,0,0,0,0,0,0,0,0,0,0,0,0,0,0,0,0,0,0,0,0,0,0,0,0,0,0,0,0,0,0,0,0,0,0,0,0,0,0,0,0,0,0,0,0,0,0.0146,0.0145,0,0.0088,0.0087,0.0086,0.004,0.0039,0.0039,0.0039,-0.009,-0.0094,-0.0097,0,0,0,0,0,0,0,0,0,0,0,0,0,0.0148,0.0148,0.0146,0.0145,0.0145,0.0088,0.0087,0.0086,0.004,0.0039,0.0039,0.0039,-0.0089,-0.0093,-0.0097,0,0,0,0,0,0,0,0,0,0,0,0,0,0.0122,0.0148,0.0146,0.0117,0.0114,0.0088,0.0087,0.0086,0.004,0.0039,0.0039,0.0039,-0.0088,-0.0093,-0.0098,-0.012,0,0,-0.0112,-0.0114,0,0,0,0,0,0,0,0,0.0124,0.0122,0.0121,0.0119,0.0115,0.0073,0.004,0.0014,0.004,0.0065,0.0039,0.0039,-0.0041,-0.005,-0.0062,-0.0126,-0.0131,-0.0113,-0.0116,-0.0118,-0.0119,0,0,0,0,0,0,0,0.0126,0.0124,0.0121,0.0121,0.0117,0.0083,0.0079,0.0035,0.0012,0.0063,0.006,0.0058,-0.0043,-0.0057,-0.0065,-0.0133,-0.0113,-0.0117,-0.012,-0.0122,-0.0246,-0.0246,0,0,0,0,0,0,0.0142,0.0126,0.0122,0.0119,0.0121,0.0084,0.0079,0.0085,0.0014,0.0004,0.0058,0.0056,-0.0049,-0.006,-0.007,-0.0101,-0.0118,-0.0122,-0.0125,-0.0245,-0.0246,-0.0246,0,0,0,0,0,0,0.0142,0.0142,0.0125,0.0122,0.0118,0.0085,0.0091,0.0084,0.0074,0.0011,-0.0001,0.0056,-0.0049,-0.0063,-0.0106,-0.0107,-0.0124,-0.0129,-0.0245,-0.0246,-0.0246,-0.0163,0,0,0,0,0,0,0.0142,0.0143,0.015,0.0124,0.0119,0.0123,0.0091,0.0083,0.0074,0.007,0.0006,-0.0007,-0.0051,-0.0099,-0.0111,-0.0114,-0.0132,-0.0244,-0.0245,-0.0246,-0.0165,-0.0161,-0.0157,0,0,0,0,0,0.0143,0.0161,0.0151,0.015,0.0131,0.0124,0.0118,0.0091,0.0075,0.0079,0.0028,-0.0005,-0.0113,-0.0103,-0.0117,-0.0121,-0.0244,-0.0245,-0.0246,-0.0167,-0.0162,-0.0157,0,0,0,0,0,0,0.0165,0.0157,0.0145,0.016,0.0148,0.0117,0.012,0.0099,0.0063,0.0055,-0.0006,-0.0022,-0.0062,-0.0104,-0.0091,-0.0162,-0.0186,-0.019,-0.0121,-0.0117,-0.0113,-0.0066,-0.0136,0,0,0,0,0,0.0175,0.0188,0.0169,0.0182,0.018,0.0151,0.0143,0.0125,0.0092,0.0077,0.0033,-0.0024,-0.0078,-0.0105,-0.0154,-0.0188,-0.0201,-0.0203,-0.0199,-0.0195,-0.0169,-0.0203,-0.0198,-0.0249,-0.0249,-0.0249,0,0,0.0187,0.0185,0.0191,0.0188,0.0176,0.0186,0.0145,0.0143,0.0145,0.0066,0.0054,-0.0009,-0.0084,-0.0123,-0.0145,-0.0157,-0.0185,-0.0196,-0.0192,-0.0167,-0.0203,-0.0198,-0.0193,-0.025,-0.025,-0.025,0,0,0.0226,0.0219,0.0244,0.024,0.0231,0.0213,0.0218,0.0192,0.0175,0.0151,0.0088,0.0031,-0.0036,-0.0093,-0.0132,-0.0136,-0.0161,-0.0157,-0.0097,-0.0131,-0.0127,-0.0123,-0.0111,-0.0107,-0.0155,-0.0155,-0.0155,0,0.0239,0.0271,0.0249,0.0271,0.0277,0.0234,0.0261,0.0237,0.0198,0.019,0.016,0.0053,-0.0021,-0.0073,-0.0081,-0.0125,-0.0125,-0.0107,-0.0122,-0.0119,-0.0116,-0.0106,-0.0102,-0.0151,-0.0152,-0.0152,-0.0152,0,0.0298,0.0319,0.0336,0.0352,0.0353,0.0369,0.034,0.0337,0.0307,0.0276,0.0228,0.0128,0.0075,0.0022,-0.0032,-0.0058,-0.0056,-0.011,-0.0124,-0.0105,-0.0096,-0.0093,-0.0146,-0.0147,-0.0148,-0.0149,0,0,0.0344,0.0372,0.038,0.0407,0.0398,0.0413,0.0418,0.0415,0.0439,0.0363,0.0386,0.0246,0.0202,0.0155,0.007,0.0021,0.0023,-0.0023,-0.0027,0.001,-0.0003,-0.0009,-0.0007,-0.0025,-0.0025,-0.0025,0.0005,0,0.04,0.0466,0.0459,0.052,0.0554,0.0525,0.0547,0.0531,0.0505,0.0517,0.0399,0.038,0.025,0.0239,0.0165,0.0072,0.0031,0.0023,-0.0045,-0.0045,-0.0037,-0.0005,0.002,0.0048,0.0007,0.0008,0.0008,0,0.0467,0.0504,0.0578,0.0626,0.0641,0.0671,0.0714,0.0725,0.0707,0.0692,0.0638,0.0568,0.0492,0.0383,0.0237,0.0248,0.014,0.0049,0.0047,0.0018,-0.0047,0.0014,0.0054,-0.0197,0.0012,0.0011,0.0011,0,0.0534,0.059,0.0659,0.0673,0.0717,0.0755,0.0781,0.0783,0.0833,0.0824,0.0878,0.0742,0.0743,0.0563,0.0379,0.0321,0.0243,0.0133,0.0024,0.0024,0.0022,0.002,-0.0171,0.0034,0.0034,0.0034,0.0034,0,0.0605,0.0662,0.0705,0.0749,0.0854,0.0845,0.0955,0.0963,0.1013,0.1124,0.0991,0.1074,0.0792,0.0712,0.0481,0.0301,0.0325,0.0065,0.0031,0.0051,0.0053,-0.0188,-0.032,0.0035,0.0035,0.0035,0.0035,0,0.0679,0.0699,0.0795,0.0863,0.0896,0.098,0.11,0.1186,0.1215,0.1373,0.1398,0.1356,0.1268,0.0987,0.0741,0.0484,0.0142,0.0191,0.0261,0.0232,-0.0154,-0.028,-0.0457,-0.0566,0.0065,0.0065,0.0065,0,0.0725,0.0781,0.0896,0.0984,0.1029,0.1146,0.1246,0.1292,0.1408,0.1575,0.1684,0.1659,0.1703,0.1342,0.0877,0.0496,0.0222,0.0236,0.0084,-0.0145,-0.0311,-0.0415,-0.0501,0.0126,0.0127,0.0127,0.0128,0,0.0828,0.0871,0.0959,0.1126,0.1252,0.1394,0.1544,0.1667,0.1778,0.1943,0.2168,0.2229,0.1915,0.155,0.0998,0.0703,0.0068,0.023,-0.0037,-0.0291,-0.0384,-0.0512,0.0101,0.0131,0.0131,0.0131,0.013,0.013,0.0923,0.1005,0.1128,0.1284,0.144,0.1637,0.1776,0.1973,0.221,0.2493,0.2527,0.268,0.212,0.1382,0.0949,0.0125,0.0099,-0.0162,-0.0291,-0.0371,-0.0505,0.0141,0.0135,0.0135,0.0135,0.0134,0.0134,0,0.1033,0.1123,0.1279,0.1474,0.1657,0.171,0.1973,0.2142,0.2461,0.2756,0.2966,0.2791,0.2105,0.1357,0.0247,-0.0321,-0.0536,-0.0619,-0.0787,-0.0852,-0.0297,-0.0329,-0.0398,-0.0398,-0.0398,-0.0397,-0.0397,-0.0397,0.1104,0.1252,0.1311,0.161,0.176,0.2002,0.2156,0.245,0.2698,0.3072,0.3189,0.3216,0.261,0.074,-0.0557,-0.0845,-0.122,-0.1284,-0.1491,-0.1155,-0.1124,-0.1095,-0.1159,-0.1402,-0.1403,-0.1989,-0.1995,-0.1999]}],[{"header":{"parameterUnit":"m.s-1","parameterCategory":2,"la1":30.2991,"la2":30.254,"lo1":-89.0895,"lo2":-89.0444,"dy":0.0017,"dx":0.0017,"nx":28,"ny":28,"refTime":"2024-06-08T09:00:00:Z","depth":"2","parameterNumber":2,"parameterNumberName":"U-component_of_CURRENTS"},"data":[0,0,0,0,0,0,0,0,0,0,0,0,0,0,0,0,0,0,0,0,0,0,0,0,0,0,0,0,0,0,0,0,0,0,0,0,0,0,0,0,0,0,0,0,0,0,0,0,0,0,0,0,0,0,0,0,0,0,0.315,0.3151,0,0.3188,0.3189,0.3189,0.3191,0.3191,0.319,0.319,0.3215,0.3216,0.3217,0,0,0,0,0,0,0,0,0,0,0,0,0,0.3089,0.309,0.315,0.3151,0.3152,0.3188,0.3189,0.3189,0.3191,0.3191,0.319,0.319,0.3215,0.3216,0.3217,0,0,0,0,0,0,0,0,0,0,0,0,0,0.3118,0.309,0.315,0.3159,0.316,0.3188,0.3189,0.3189,0.3191,0.3191,0.319,0.319,0.3215,0.3216,0.3217,0.3233,0,0,0.3222,0.3222,0,0,0,0,0,0,0,0,0.3117,0.312,0.3157,0.3158,0.316,0.3186,0.3176,0.3204,0.3191,0.3177,0.319,0.319,0.3206,0.3208,0.3213,0.3234,0.3235,0.3222,0.3222,0.3223,0.3223,0,0,0,0,0,0,0,0.3115,0.3119,0.3163,0.3157,0.3159,0.3164,0.3167,0.3182,0.3191,0.3178,0.3179,0.3187,0.3206,0.3212,0.3214,0.3236,0.3222,0.3223,0.3224,0.3224,0.336,0.3363,0,0,0,0,0,0,0.3114,0.3117,0.3162,0.3165,0.3139,0.3165,0.3169,0.3176,0.3192,0.3194,0.3187,0.3187,0.321,0.3212,0.3215,0.3336,0.3223,0.3224,0.3225,0.3358,0.3361,0.3364,0,0,0,0,0,0,0.3113,0.3118,0.3161,0.3143,0.3149,0.3167,0.3175,0.3177,0.3196,0.3199,0.32,0.3204,0.321,0.3213,0.3252,0.3332,0.3225,0.3226,0.3354,0.3359,0.3363,0.3512,0,0,0,0,0,0,0.3111,0.3117,0.3125,0.3143,0.315,0.3194,0.3176,0.3178,0.3201,0.3201,0.3214,0.3215,0.321,0.3251,0.3254,0.3332,0.3227,0.3351,0.3356,0.3361,0.3504,0.3521,0.3536,0,0,0,0,0,0.3108,0.3125,0.3125,0.3131,0.316,0.3196,0.3201,0.321,0.3202,0.3222,0.3234,0.3215,0.3287,0.3254,0.3257,0.3338,0.3348,0.3355,0.3361,0.3496,0.3517,0.3535,0,0,0,0,0,0,0.31,0.3127,0.3128,0.315,0.3178,0.3197,0.3219,0.3221,0.3245,0.3249,0.3241,0.3245,0.3314,0.3297,0.3261,0.3392,0.3319,0.3326,0.3421,0.3441,0.3456,0.3432,0.3228,0,0,0,0,0,0.3103,0.3123,0.3149,0.3169,0.3187,0.3204,0.322,0.323,0.3252,0.3262,0.3275,0.3297,0.3342,0.3365,0.3386,0.345,0.3455,0.3507,0.3523,0.3536,0.3519,0.3628,0.3653,0.3385,0.3385,0.3385,0,0,0.3103,0.3123,0.3132,0.3169,0.3191,0.3239,0.3213,0.3252,0.3298,0.3262,0.3329,0.3348,0.3368,0.3449,0.348,0.3447,0.3618,0.3544,0.3556,0.353,0.3637,0.3663,0.3687,0.3389,0.3388,0.3388,0,0,0.3122,0.3137,0.3164,0.3194,0.3238,0.3268,0.3284,0.332,0.3344,0.3407,0.3408,0.3467,0.3518,0.3561,0.3587,0.3699,0.3695,0.3719,0.3791,0.3899,0.3922,0.3942,0.3994,0.4018,0.3734,0.3735,0.3735,0,0.3122,0.3162,0.3179,0.3219,0.3253,0.3288,0.3334,0.3378,0.3424,0.3455,0.3447,0.3552,0.3577,0.3682,0.3734,0.3739,0.3776,0.3721,0.3922,0.3942,0.396,0.4008,0.4032,0.3743,0.3742,0.3741,0.374,0,0.3161,0.3202,0.3228,0.3298,0.3334,0.3387,0.3446,0.35,0.354,0.3578,0.3674,0.3709,0.3778,0.3813,0.3813,0.3961,0.3938,0.3929,0.3875,0.3996,0.4039,0.4061,0.3754,0.3751,0.3749,0.3747,0,0,0.3147,0.3239,0.325,0.3287,0.3382,0.3412,0.3515,0.3607,0.3675,0.3736,0.3865,0.3918,0.3938,0.3966,0.3988,0.407,0.4252,0.4064,0.4066,0.4117,0.447,0.4337,0.4347,0.4298,0.4302,0.4306,0.4452,0,0.3182,0.3259,0.3306,0.3397,0.3444,0.3513,0.3612,0.3694,0.3767,0.3913,0.3979,0.4104,0.4003,0.4086,0.4149,0.4236,0.4316,0.421,0.4339,0.4342,0.4212,0.4371,0.4032,0.4123,0.4473,0.4477,0.448,0,0.321,0.3259,0.3343,0.3448,0.3478,0.3553,0.3689,0.3781,0.3974,0.4048,0.4152,0.423,0.4373,0.4317,0.4435,0.4379,0.4433,0.4468,0.4475,0.4303,0.425,0.4056,0.415,0.4516,0.4513,0.4511,0.4508,0,0.318,0.3286,0.3353,0.3386,0.352,0.3582,0.3681,0.3821,0.3901,0.4173,0.4263,0.4417,0.4533,0.4611,0.4626,0.459,0.4771,0.4743,0.4648,0.4638,0.4341,0.4297,0.4862,0.4862,0.4862,0.4861,0.4861,0,0.32,0.3242,0.3347,0.3383,0.3482,0.358,0.3705,0.3828,0.4033,0.415,0.4331,0.4437,0.4617,0.4717,0.4738,0.4729,0.485,0.4676,0.4686,0.4382,0.4342,0.4658,0.4633,0.4867,0.4865,0.4864,0.4863,0,0.315,0.3224,0.3287,0.3419,0.3471,0.3539,0.371,0.38,0.3978,0.4162,0.4276,0.4514,0.4642,0.4728,0.4908,0.483,0.4889,0.4861,0.4462,0.442,0.4661,0.4642,0.4809,0.4805,0.4803,0.4801,0.4799,0,0.3131,0.3173,0.3285,0.3321,0.3385,0.3499,0.36,0.3793,0.3885,0.414,0.4249,0.4468,0.4568,0.4731,0.4746,0.4786,0.4852,0.4462,0.4324,0.4673,0.4666,0.465,0.4635,0.4001,0.3993,0.3986,0.3981,0,0.3101,0.3143,0.3195,0.3265,0.3352,0.3422,0.3573,0.3622,0.3852,0.3961,0.4126,0.4245,0.444,0.437,0.444,0.4403,0.4432,0.4325,0.4855,0.4052,0.392,0.391,0.392,0.3921,0.3927,0.3932,0.3935,0.3937,0.3075,0.3081,0.3152,0.3202,0.3278,0.3306,0.3309,0.345,0.3543,0.3654,0.3889,0.3936,0.4057,0.4006,0.3902,0.3844,0.414,0.3954,0.3972,0.3998,0.3863,0.3733,0.3672,0.3676,0.368,0.3683,0.3686,0,0.3013,0.3032,0.3083,0.3102,0.3079,0.3172,0.3258,0.3198,0.3209,0.3404,0.3494,0.3285,0.3278,0.338,0.3219,0.3228,0.3172,0.3081,0.2982,0.3047,0.3103,0.2918,0.2478,0.2474,0.247,0.2466,0,0,0.2989,0.2973,0.2982,0.2895,0.2887,0.283,0.2816,0.2757,0.2834,0.2795,0.2843,0.314,0.3303,0.2848,0.2802,0.2609,0.2791,0.2504,0.3488,0.3438,0.3488,0.364,0.3433,0,0,0,0,0]},{"header":{"parameterUnit":"m.s-1","parameterCategory":2,"la1":30.2991,"la2":30.254,"lo1":-89.0895,"lo2":-89.0444,"dy":0.0017,"dx":0.0017,"nx":28,"ny":28,"refTime":"2024-06-08T09:00:00:Z","depth":"2","parameterNumber":3,"parameterNumberName":"V-component_of_CURRENTS"},"data":[0,0,0,0,0,0,0,0,0,0,0,0,0,0,0,0,0,0,0,0,0,0,0,0,0,0,0,0,0,0,0,0,0,0,0,0,0,0,0,0,0,0,0,0,0,0,0,0,0,0,0,0,0,0,0,0,0,0,0.0074,0.0074,0,0.0022,0.0022,0.0021,-0.0022,-0.0023,-0.0023,-0.0023,-0.0136,-0.0138,-0.0141,0,0,0,0,0,0,0,0,0,0,0,0,0,0.0071,0.0072,0.0074,0.0074,0.0073,0.0023,0.0022,0.0021,-0.0022,-0.0023,-0.0023,-0.0023,-0.0135,-0.0138,-0.0141,0,0,0,0,0,0,0,0,0,0,0,0,0,0.005,0.0072,0.0074,0.0047,0.0044,0.0023,0.0022,0.002,-0.0022,-0.0023,-0.0023,-0.0024,-0.0134,-0.0138,-0.0142,-0.0159,0,0,-0.0154,-0.0156,0,0,0,0,0,0,0,0,0.0051,0.0049,0.0052,0.0049,0.0046,0.0008,-0.002,-0.0042,-0.0022,0.0001,-0.0023,-0.0024,-0.0092,-0.0099,-0.011,-0.0164,-0.0169,-0.0155,-0.0157,-0.0159,-0.016,0,0,0,0,0,0,0,0.0053,0.0051,0.0051,0.0051,0.0048,0.0016,0.0013,-0.0025,-0.0045,-0.0001,-0.0004,-0.0006,-0.0094,-0.0106,-0.0113,-0.017,-0.0154,-0.0158,-0.0161,-0.0162,-0.024,-0.024,0,0,0,0,0,0,0.0067,0.0053,0.0053,0.005,0.005,0.0017,0.0013,0.0019,-0.0044,-0.0052,-0.0006,-0.0008,-0.0099,-0.0108,-0.0117,-0.0124,-0.0159,-0.0163,-0.0165,-0.024,-0.024,-0.024,0,0,0,0,0,0,0.0067,0.0068,0.0055,0.0051,0.0048,0.0018,0.0024,0.0018,0.001,-0.0046,-0.0057,-0.0007,-0.0099,-0.0112,-0.0143,-0.013,-0.0164,-0.0168,-0.0241,-0.024,-0.024,-0.0149,0,0,0,0,0,0,0.0068,0.0069,0.0075,0.0053,0.0049,0.0055,0.0025,0.0017,0.001,0.0006,-0.0051,-0.0062,-0.0101,-0.0137,-0.0147,-0.0136,-0.0171,-0.0241,-0.0241,-0.024,-0.0153,-0.0146,-0.014,0,0,0,0,0,0.0068,0.0086,0.0076,0.0076,0.006,0.0056,0.0051,0.0025,0.001,0.0015,-0.0026,-0.006,-0.014,-0.014,-0.0152,-0.0142,-0.0242,-0.0241,-0.024,-0.0156,-0.0147,-0.014,0,0,0,0,0,0,0.0087,0.0082,0.0071,0.0086,0.0076,0.0049,0.0052,0.0033,0.0005,-0.0,-0.0056,-0.007,-0.0093,-0.0131,-0.0129,-0.0163,-0.0196,-0.0197,-0.0128,-0.012,-0.0114,-0.0073,-0.0175,0,0,0,0,0,0.0096,0.0109,0.0094,0.0107,0.0106,0.008,0.0073,0.0058,0.0032,0.0019,-0.002,-0.0064,-0.01,-0.0119,-0.0157,-0.0175,-0.0208,-0.0177,-0.0171,-0.0165,-0.0141,-0.0187,-0.0181,-0.0237,-0.0237,-0.0237,0,0,0.0107,0.0106,0.0113,0.0112,0.0102,0.0115,0.0075,0.0076,0.0086,0.001,0.0008,-0.0043,-0.01,-0.0119,-0.0133,-0.0148,-0.0167,-0.0164,-0.0158,-0.0137,-0.0185,-0.018,-0.0175,-0.0236,-0.0236,-0.0236,0,0,0.0146,0.0138,0.0164,0.0163,0.0157,0.0143,0.0148,0.0127,0.0117,0.0104,0.0053,0.0014,-0.0039,-0.0074,-0.01,-0.0081,-0.0132,-0.0097,-0.0029,-0.0074,-0.0069,-0.0066,-0.0099,-0.0099,-0.0092,-0.0091,-0.0091,0,0.0157,0.0192,0.017,0.0195,0.0206,0.0163,0.0197,0.018,0.0149,0.0152,0.0116,0.0049,-0.0014,-0.0026,-0.0026,-0.0064,-0.0092,-0.0053,-0.0063,-0.0061,-0.0058,-0.0094,-0.0095,-0.0087,-0.0087,-0.0088,-0.0088,0,0.0219,0.0242,0.026,0.0281,0.0287,0.0307,0.0289,0.0289,0.0265,0.0246,0.0228,0.0146,0.0109,0.0076,0.0027,0.0018,-0.0008,-0.0051,-0.0078,-0.0047,-0.0087,-0.0089,-0.0081,-0.0082,-0.0084,-0.0085,0,0,0.0259,0.0297,0.0303,0.0338,0.0338,0.0358,0.0375,0.0388,0.0417,0.0361,0.0391,0.0301,0.0255,0.0223,0.0152,0.0109,0.0078,0.0044,0.004,0.0023,-0.0008,-0.0032,-0.0038,0.0033,0.0033,0.0033,-0.0041,0,0.0316,0.0391,0.0389,0.0462,0.0504,0.0482,0.0511,0.0513,0.0495,0.0507,0.0426,0.0415,0.0311,0.0296,0.0233,0.0123,0.0075,0.0103,-0.0045,-0.0048,-0.0065,-0.004,-0.0011,-0.0075,-0.0044,-0.0045,-0.0045,0,0.0383,0.0428,0.0512,0.0579,0.0597,0.0629,0.0683,0.0704,0.0695,0.0682,0.0646,0.0581,0.0514,0.0417,0.0254,0.0278,0.0148,0.0054,0.0048,-0.0002,-0.0077,-0.0103,-0.0082,-0.0051,-0.005,-0.005,-0.005,0,0.0447,0.0519,0.0595,0.0615,0.0674,0.0715,0.0748,0.0762,0.0808,0.08,0.0825,0.0722,0.0689,0.0519,0.0306,0.0282,0.0129,0.0063,-0.0076,-0.0079,-0.0095,-0.01,-0.0049,-0.0048,-0.0048,-0.0048,-0.0048,0,0.0519,0.058,0.0636,0.0682,0.0791,0.08,0.0906,0.0919,0.0957,0.1036,0.0923,0.0954,0.0712,0.0588,0.0371,0.0151,0.0169,-0.0046,-0.0095,-0.0064,-0.0065,-0.0078,-0.0081,-0.0051,-0.005,-0.005,-0.0049,0,0.0579,0.0609,0.071,0.0791,0.0828,0.091,0.1023,0.1096,0.1113,0.1212,0.1221,0.1134,0.0978,0.0725,0.0459,0.0255,0.0032,-0.0057,0.0004,-0.0037,-0.0162,-0.0159,-0.0208,-0.0209,-0.021,-0.0211,-0.0212,0,0.0616,0.0673,0.0795,0.0869,0.0913,0.103,0.1118,0.1174,0.1261,0.1332,0.1393,0.1284,0.1219,0.0824,0.0457,0.0098,0.0038,-0.0112,-0.0164,-0.0132,-0.0176,-0.0171,-0.0167,-0.0154,-0.0154,-0.0154,-0.0154,0,0.069,0.073,0.0812,0.0964,0.1075,0.1207,0.1337,0.1431,0.1513,0.1589,0.1663,0.1618,0.1267,0.0913,0.0428,0.0181,-0.0054,-0.0128,-0.0107,-0.0115,-0.0087,-0.0128,-0.0124,-0.0156,-0.0156,-0.0156,-0.0156,-0.0156,0.0743,0.0812,0.0921,0.1068,0.1201,0.1364,0.1488,0.1623,0.1774,0.1897,0.1849,0.1792,0.14,0.0781,0.0356,-0.0077,-0.0058,-0.0222,-0.0219,-0.0217,-0.0194,-0.0169,-0.0249,-0.025,-0.025,-0.025,-0.025,0,0.081,0.0887,0.1019,0.1192,0.1341,0.1403,0.1622,0.1735,0.1923,0.202,0.2062,0.1683,0.1286,0.0837,0.0197,-0.0193,-0.0227,-0.0317,-0.0274,-0.0269,-0.0265,-0.0244,-0.0313,-0.0315,-0.0316,-0.0317,0,0,0.0847,0.0968,0.1032,0.1275,0.1401,0.1604,0.1736,0.1906,0.2027,0.21,0.2078,0.1983,0.1439,0.0961,0.043,0.0063,-0.0014,-0.0013,0.0081,0.0201,0.0209,-0.0165,-0.0121,0,0,0,0,0]}],[{"header":{"parameterUnit":"m.s-1","parameterCategory":2,"la1":30.2991,"la2":30.254,"lo1":-89.0895,"lo2":-89.0444,"dy":0.0017,"dx":0.0017,"nx":28,"ny":28,"refTime":"2024-06-08T09:00:00:Z","depth":"4","parameterNumber":2,"parameterNumberName":"U-component_of_CURRENTS"},"data":[0,0,0,0,0,0,0,0,0,0,0,0,0,0,0,0,0,0,0,0,0,0,0,0,0,0,0,0,0,0,0,0,0,0,0,0,0,0,0,0,0,0,0,0,0,0,0,0,0,0,0,0,0,0,0,0,0,0,0.2112,0.2113,0,0.2195,0.2196,0.2197,0.2268,0.2269,0.227,0.2271,0.2318,0.2318,0.2318,0,0,0,0,0,0,0,0,0,0,0,0,0,0.2007,0.2008,0.2112,0.2113,0.2114,0.2195,0.2196,0.2197,0.2268,0.2269,0.227,0.2271,0.2317,0.2318,0.2318,0,0,0,0,0,0,0,0,0,0,0,0,0,0.2066,0.2009,0.2112,0.2161,0.2166,0.2195,0.2196,0.2197,0.2267,0.2269,0.227,0.2272,0.2317,0.2318,0.2318,0.2293,0,0,0.232,0.232,0,0,0,0,0,0,0,0,0.2062,0.2069,0.2152,0.2157,0.2163,0.2224,0.2176,0.2228,0.2267,0.2227,0.2271,0.2272,0.2283,0.2287,0.2297,0.2295,0.2297,0.232,0.232,0.2321,0.2321,0,0,0,0,0,0,0,0.2058,0.2066,0.2143,0.2153,0.216,0.2176,0.2186,0.2186,0.2244,0.223,0.2236,0.2248,0.2286,0.2296,0.2298,0.2298,0.232,0.2321,0.2321,0.2321,0.2383,0.2384,0,0,0,0,0,0,0.2051,0.2062,0.214,0.2146,0.2117,0.2177,0.2188,0.2202,0.2245,0.2254,0.2247,0.2251,0.2295,0.2298,0.23,0.2368,0.2321,0.2321,0.2321,0.2381,0.2383,0.2384,0,0,0,0,0,0,0.2048,0.2057,0.2137,0.2107,0.2119,0.2178,0.2192,0.2203,0.2257,0.2258,0.2266,0.2296,0.2296,0.23,0.2329,0.2367,0.2321,0.2322,0.238,0.2382,0.2384,0.2443,0,0,0,0,0,0,0.2045,0.2055,0.2083,0.2107,0.212,0.218,0.2191,0.2203,0.226,0.2268,0.2302,0.2305,0.2297,0.2328,0.233,0.2367,0.2322,0.2378,0.2381,0.2383,0.2439,0.2447,0.2453,0,0,0,0,0,0.2041,0.2063,0.2084,0.2095,0.215,0.2181,0.219,0.2234,0.2262,0.2289,0.2308,0.2307,0.2346,0.2329,0.2331,0.2369,0.2377,0.238,0.2383,0.2436,0.2445,0.2453,0,0,0,0,0,0,0.2033,0.2074,0.2096,0.2133,0.2168,0.2195,0.223,0.2257,0.2296,0.2316,0.2315,0.2319,0.2364,0.2354,0.2337,0.2395,0.2364,0.2368,0.2405,0.2413,0.242,0.2429,0.2323,0,0,0,0,0,0.2043,0.2074,0.211,0.2143,0.2166,0.2207,0.2235,0.2265,0.2293,0.2315,0.2336,0.2356,0.2369,0.2383,0.2393,0.2416,0.2438,0.2444,0.2451,0.2457,0.2466,0.2535,0.2549,0.2394,0.2394,0.2394,0,0,0.2049,0.2076,0.2096,0.2145,0.2179,0.2202,0.2228,0.2282,0.2306,0.231,0.2361,0.2384,0.2381,0.2414,0.2433,0.2415,0.2514,0.2461,0.2466,0.2472,0.254,0.2555,0.2569,0.2396,0.2396,0.2395,0,0,0.2052,0.2104,0.2124,0.2157,0.2215,0.2234,0.2258,0.231,0.2348,0.2385,0.2402,0.2446,0.2463,0.2475,0.2477,0.2525,0.2551,0.2542,0.2582,0.265,0.2663,0.2675,0.273,0.2747,0.2543,0.2543,0.2543,0,0.2063,0.2088,0.2136,0.216,0.2189,0.2249,0.2271,0.2307,0.2364,0.2402,0.241,0.2479,0.2485,0.2523,0.2548,0.2542,0.2589,0.255,0.266,0.2673,0.2684,0.2737,0.2755,0.2546,0.2546,0.2545,0.2545,0,0.2059,0.2101,0.2119,0.2162,0.22,0.2237,0.2285,0.2346,0.2397,0.2432,0.2511,0.2527,0.2575,0.2586,0.2581,0.267,0.2681,0.2665,0.2641,0.2704,0.2755,0.2773,0.2551,0.2549,0.2548,0.2548,0,0,0.202,0.21,0.2111,0.2142,0.2211,0.2239,0.2298,0.2364,0.2428,0.2485,0.2557,0.2594,0.2647,0.2654,0.2673,0.2728,0.285,0.2746,0.2748,0.2803,0.3017,0.2837,0.2838,0.2873,0.2876,0.2879,0.3023,0,0.2006,0.2046,0.209,0.2139,0.2166,0.2249,0.2296,0.2374,0.2451,0.2538,0.2588,0.2665,0.2657,0.2716,0.2766,0.2844,0.29,0.2813,0.2945,0.2949,0.2783,0.2853,0.2889,0.3036,0.304,0.3043,0.3045,0,0.1976,0.2011,0.2056,0.2147,0.217,0.2216,0.2339,0.2393,0.2521,0.2594,0.2686,0.2741,0.2845,0.2824,0.2976,0.2937,0.2988,0.3025,0.3031,0.2852,0.2799,0.2958,0.3076,0.3074,0.3071,0.3069,0.3067,0,0.191,0.1988,0.2029,0.2057,0.2161,0.2226,0.2295,0.2425,0.2503,0.266,0.2752,0.2852,0.2952,0.3023,0.3113,0.3079,0.327,0.322,0.3093,0.3082,0.3176,0.3161,0.3317,0.3317,0.3317,0.3316,0.3316,0,0.1856,0.1894,0.2019,0.2041,0.2117,0.221,0.232,0.2417,0.257,0.2666,0.2794,0.2887,0.3021,0.3134,0.3168,0.3193,0.3321,0.3115,0.311,0.3197,0.3183,0.3189,0.3172,0.3321,0.332,0.3319,0.3318,0,0.177,0.1847,0.1907,0.2038,0.209,0.2153,0.233,0.2402,0.2582,0.2719,0.2785,0.2979,0.3127,0.3223,0.3363,0.3267,0.3301,0.3274,0.3387,0.3383,0.3052,0.3037,0.3132,0.3127,0.3122,0.3119,0.3116,0,0.1721,0.175,0.1897,0.1943,0.2014,0.2131,0.2204,0.2387,0.2469,0.2746,0.279,0.3015,0.3117,0.3168,0.3278,0.3324,0.328,0.3263,0.3115,0.3049,0.3036,0.3027,0.3018,0.3109,0.3108,0.3106,0.3105,0,0.1634,0.1714,0.1769,0.1867,0.1956,0.2029,0.2158,0.2202,0.2414,0.2614,0.2741,0.2824,0.2983,0.3063,0.3136,0.3151,0.3246,0.3216,0.3223,0.3084,0.3023,0.3011,0.3008,0.309,0.3092,0.3094,0.3095,0,0.1584,0.1602,0.1699,0.1768,0.1866,0.1886,0.1969,0.2073,0.2182,0.2478,0.2523,0.2757,0.296,0.2979,0.3043,0.3051,0.2985,0.2852,0.2876,0.2894,0.2746,0.2629,0.2584,0,0,0,0,0,0.1522,0.1525,0.1585,0.1635,0.1724,0.1775,0.1916,0.2004,0.2216,0.2242,0.2376,0.251,0.2626,0.2748,0.2707,0.2924,0.2983,0.2861,0.2837,0.3007,0.3024,0.2869,0,0,0,0,0,0,0.1475,0.1524,0.1537,0.1517,0.1522,0.1589,0.1663,0.1803,0.1829,0.2069,0.2151,0.2349,0.2501,0.2631,0.266,0.2694,0.2623,0.3013,0.3006,0.2997,0.3013,0.3027,0.2873,0,0,0,0,0]},{"header":{"parameterUnit":"m.s-1","parameterCategory":2,"la1":30.2991,"la2":30.254,"lo1":-89.0895,"lo2":-89.0444,"dy":0.0017,"dx":0.0017,"nx":28,"ny":28,"refTime":"2024-06-08T09:00:00:Z","depth":"4","parameterNumber":3,"parameterNumberName":"V-component_of_CURRENTS"},"data":[0,0,0,0,0,0,0,0,0,0,0,0,0,0,0,0,0,0,0,0,0,0,0,0,0,0,0,0,0,0,0,0,0,0,0,0,0,0,0,0,0,0,0,0,0,0,0,0,0,0,0,0,0,0,0,0,0,0,0.0075,0.0075,0,0.0039,0.0039,0.0038,0.0006,0.0005,0.0005,0.0005,-0.007,-0.0072,-0.0074,0,0,0,0,0,0,0,0,0,0,0,0,0,0.0071,0.0071,0.0075,0.0075,0.0075,0.004,0.0039,0.0038,0.0006,0.0005,0.0005,0.0005,-0.007,-0.0072,-0.0074,0,0,0,0,0,0,0,0,0,0,0,0,0,0.0056,0.0071,0.0075,0.0055,0.0053,0.004,0.0039,0.0038,0.0006,0.0005,0.0005,0.0005,-0.0069,-0.0072,-0.0074,-0.0083,0,0,-0.0082,-0.0083,0,0,0,0,0,0,0,0,0.0057,0.0056,0.0058,0.0057,0.0054,0.0028,0.001,-0.0004,0.0006,0.0022,0.0005,0.0005,-0.004,-0.0045,-0.0052,-0.0086,-0.0089,-0.0083,-0.0084,-0.0085,-0.0086,0,0,0,0,0,0,0,0.0058,0.0057,0.006,0.0058,0.0056,0.0033,0.0031,0.0007,-0.0008,0.0021,0.0019,0.0017,-0.0042,-0.005,-0.0054,-0.0091,-0.0082,-0.0085,-0.0086,-0.0088,-0.0109,-0.0108,0,0,0,0,0,0,0.0068,0.0059,0.0061,0.0059,0.0056,0.0033,0.0031,0.0036,-0.0007,-0.0013,0.0018,0.0016,-0.0045,-0.0051,-0.0057,-0.0034,-0.0085,-0.0088,-0.0089,-0.011,-0.0108,-0.0107,0,0,0,0,0,0,0.0069,0.0069,0.0062,0.0058,0.0056,0.0034,0.004,0.0035,0.003,-0.0009,-0.0016,0.0018,-0.0046,-0.0054,-0.0065,-0.0038,-0.0089,-0.0091,-0.0111,-0.0109,-0.0108,-0.001,0,0,0,0,0,0,0.0069,0.007,0.0075,0.006,0.0057,0.0065,0.004,0.0035,0.003,0.0027,-0.0011,-0.0019,-0.0046,-0.0061,-0.0068,-0.0043,-0.0093,-0.0112,-0.011,-0.0108,-0.0014,-0.0005,0.0003,0,0,0,0,0,0.0069,0.0084,0.0076,0.0076,0.0066,0.0066,0.0063,0.0044,0.0031,0.0036,0.0012,-0.0018,-0.0054,-0.0062,-0.0071,-0.0046,-0.0113,-0.0111,-0.0108,-0.0018,-0.0007,0.0003,0,0,0,0,0,0,0.0084,0.0081,0.0072,0.0085,0.0079,0.0061,0.0065,0.005,0.0035,0.0033,-0.0008,-0.0016,-0.0016,-0.0046,-0.0055,-0.0046,-0.0087,-0.0086,-0.0015,-0.0005,0.0003,0.001,-0.0096,0,0,0,0,0,0.0091,0.0102,0.0092,0.0103,0.0104,0.0084,0.0081,0.0071,0.0056,0.0049,0.0024,-0.0001,-0.0014,-0.0021,-0.0043,-0.004,-0.0089,-0.0029,-0.002,-0.0012,-0.0013,-0.0062,-0.0058,-0.01,-0.01,-0.01,0,0,0.01,0.01,0.0106,0.0107,0.0101,0.0118,0.0082,0.0086,0.0103,0.0043,0.0055,0.0025,-0.0008,-0.0,-0.0003,-0.0021,-0.0026,-0.0009,-0.0003,-0.0007,-0.0059,-0.0055,-0.0052,-0.0098,-0.0098,-0.0099,0,0,0.0133,0.0125,0.015,0.0151,0.015,0.0143,0.0148,0.0136,0.0133,0.0138,0.0105,0.0091,0.0068,0.0055,0.0044,0.0085,0.0019,0.0081,0.0132,0.0086,0.0089,0.009,0.0035,0.0031,0.0088,0.0089,0.0089,0,0.0142,0.0173,0.0156,0.018,0.0193,0.0161,0.0194,0.0188,0.0174,0.0177,0.0156,0.0125,0.0097,0.0106,0.0124,0.0105,0.006,0.0099,0.0097,0.0097,0.0098,0.004,0.0035,0.0094,0.0093,0.0093,0.0092,0,0.0197,0.0219,0.0235,0.026,0.0269,0.0291,0.0286,0.0292,0.028,0.0268,0.0267,0.0224,0.0205,0.02,0.0175,0.0174,0.0136,0.0111,0.0072,0.0108,0.0045,0.0038,0.0101,0.0099,0.0098,0.0096,0,0,0.0226,0.0267,0.0273,0.0303,0.0316,0.0333,0.0362,0.0379,0.0399,0.0371,0.0388,0.0362,0.0323,0.0308,0.027,0.0233,0.0199,0.018,0.0175,0.0127,0.0084,0.0074,0.0064,0.0171,0.0171,0.017,0.0041,0,0.0276,0.0344,0.035,0.0417,0.0454,0.0444,0.0477,0.0484,0.0474,0.0478,0.0428,0.0425,0.037,0.0364,0.0318,0.0228,0.0183,0.0236,0.0054,0.0049,0.0037,0.0056,0.0168,0.0035,0.0033,0.0031,0.0031,0,0.0332,0.0372,0.0449,0.0508,0.0524,0.0556,0.06,0.0627,0.0617,0.0605,0.0576,0.0526,0.0478,0.0423,0.0277,0.031,0.0208,0.0128,0.0121,0.007,0.0025,-0.0012,0.0016,0.0017,0.0018,0.0019,0.002,0,0.0371,0.0442,0.0509,0.0529,0.0586,0.0622,0.0654,0.0666,0.07,0.0684,0.0687,0.0607,0.0572,0.0436,0.0273,0.0272,0.0095,0.0071,-0.004,-0.0043,-0.0041,-0.0042,-0.0039,-0.0038,-0.0038,-0.0038,-0.0037,0,0.0421,0.0475,0.0536,0.0572,0.0659,0.068,0.0759,0.0771,0.0794,0.0835,0.0757,0.0748,0.0572,0.045,0.0293,0.0103,0.0104,-0.0033,-0.0074,0.0004,0.001,-0.0047,-0.0046,-0.0043,-0.0042,-0.0041,-0.004,0,0.0448,0.0488,0.0572,0.0649,0.0682,0.0744,0.0838,0.0884,0.0896,0.0943,0.0943,0.0847,0.0689,0.0497,0.027,0.0137,-0.0047,-0.0117,-0.0022,-0.0056,-0.0162,-0.0155,-0.0251,-0.0253,-0.0254,-0.0255,-0.0256,0,0.0465,0.0512,0.0624,0.0682,0.0721,0.0817,0.0882,0.0934,0.0983,0.1,0.1017,0.0894,0.0802,0.0476,0.0263,-0.0041,-0.0085,-0.0188,-0.0172,-0.0153,-0.0183,-0.0173,-0.0165,-0.0257,-0.0258,-0.0258,-0.0258,0,0.0493,0.0534,0.0601,0.0725,0.081,0.0912,0.1006,0.1049,0.1106,0.1116,0.108,0.0923,0.074,0.0485,0.0248,0.003,-0.0122,-0.0201,-0.02,-0.0186,-0.0161,-0.0188,-0.0178,-0.0262,-0.0262,-0.0261,-0.0261,0,0.051,0.0558,0.065,0.0762,0.0874,0.0977,0.1026,0.1084,0.1137,0.1152,0.1133,0.0947,0.0843,0.0519,0.0301,0.0087,0.0029,-0.0045,-0.0053,-0.0052,0.0045,0.0107,0.0056,0,0,0,0,0,0.0526,0.0585,0.0681,0.0808,0.0919,0.0991,0.1098,0.1134,0.1185,0.1172,0.1162,0.0997,0.0688,0.055,0.0335,0.0256,-0.0025,-0.0006,-0.0119,-0.0284,-0.028,-0.0201,0,0,0,0,0,0,0.0535,0.0623,0.0677,0.0827,0.0916,0.1043,0.1114,0.1146,0.114,0.1155,0.0994,0.0935,0.0629,0.0815,0.0329,0.0265,0.016,-0.0144,-0.015,-0.0287,-0.0283,-0.0279,-0.0197,0,0,0,0,0]}]]